Location: Oroua River
(40.4333°S, 175.4333°E)
Time: 15:04:04
(UTC+00:00)

Helios 1B rocket - Pass Details

Date: 03 February 2023
Orbit: 558 x 571 km, 98.2° (Epoch: 23 March)

Event Time Altitude Azimuth Distance (km) Brightness Sun altitude
Exits shadow 16:26:54 12° 334° (NNW) 1,746 4.4 -11.3°
Maximum altitude 16:30:02 28° 277° (W) 1,095 3.3 -10.8°
Drops below altitude 10° 16:33:36 10° 217° (SW) 1,896 5.0 -10.2°
Sets 16:36:00 0° 204° (SSW) 2,800 6.0 -9.8°
